VLG71DR EHAM-LEBL

Flight info

Callsign VLG71DR
Flight time 1h 57m
Altitude 33000
Route WOODY N872 CIV DCT KOVIN DCT DUCRA UM728 RESMI/N0440F350 UN857 DISAK/N0447F390 DCT DIRMO DCT VALKU DCT ATSUP DCT MINSO DCT DEGOL DCT PPG DCT ALBER
Aircraft A320/M-SDFGIJ1LORVWYZ/LB1

Departure

Time 2026-05-04 16:16
Airport Amsterdam Airport Schiphol (EHAM)

Arrival

Time 2026-05-04 18:13
Airport Josep Tarradellas Barcelona-El Prat Airport (LEBL)
Time Latitude Longitude Altitude Speed Heading
2026-05-04 15:39 52.30476 4.76288 -1 ft 0 kts 238°
2026-05-04 15:57 52.30479 4.76298 -1 ft 3 kts 238°
2026-05-04 15:58 52.30492 4.76330 -1 ft 3 kts 231°
2026-05-04 15:58 52.30506 4.76352 -1 ft 3 kts 183°
2026-05-04 15:58 52.30513 4.76352 -1 ft 0 kts 161°
2026-05-04 16:02 52.30495 4.76374 -1 ft 5 kts 146°
2026-05-04 16:02 52.30408 4.76464 -1 ft 10 kts 147°
2026-05-04 16:03 52.30347 4.76529 -1 ft 12 kts 147°
2026-05-04 16:03 52.30280 4.76487 -1 ft 13 kts 239°
2026-05-04 16:03 52.30231 4.76357 -1 ft 14 kts 238°
2026-05-04 16:03 52.30175 4.76208 -1 ft 16 kts 238°
2026-05-04 16:04 52.30113 4.76047 -1 ft 18 kts 238°
2026-05-04 16:04 52.29971 4.75677 -1 ft 21 kts 238°
2026-05-04 16:04 52.29892 4.75473 -1 ft 19 kts 237°
2026-05-04 16:05 52.29834 4.75321 -1 ft 17 kts 244°
2026-05-04 16:05 52.29868 4.75146 -1 ft 19 kts 315°
2026-05-04 16:05 52.30058 4.74796 0 ft 22 kts 312°
2026-05-04 16:06 52.30154 4.74617 10 ft 19 kts 310°
2026-05-04 16:06 52.30445 4.74196 -1 ft 21 kts 359°
2026-05-04 16:07 52.30645 4.74214 -1 ft 23 kts
2026-05-04 16:07 52.31114 4.74258 -1 ft 21 kts
2026-05-04 16:08 52.31268 4.74271 -1 ft 23 kts
2026-05-04 16:08 52.31778 4.74322 -1 ft 25 kts
2026-05-04 16:09 52.32017 4.74326 -1 ft 11 kts 333°
2026-05-04 16:09 52.32037 4.74026 -2 ft 16 kts 271°
2026-05-04 16:10 52.32052 4.73606 -1 ft 21 kts 273°
2026-05-04 16:11 52.32334 4.73012 -1 ft 26 kts 319°
2026-05-04 16:11 52.32476 4.72816 -1 ft 27 kts 319°
2026-05-04 16:12 52.32884 4.72141 -1 ft 29 kts 311°
2026-05-04 16:12 52.33112 4.71469 -1 ft 22 kts 218°
2026-05-04 16:13 52.32925 4.71202 -1 ft 16 kts 221°
2026-05-04 16:13 52.32860 4.71058 -1 ft 0 kts 272°
2026-05-04 16:14 52.32860 4.71057 -1 ft 1 kts 272°
2026-05-04 16:14 52.32864 4.70936 -2 ft 9 kts 274°
2026-05-04 16:15 52.33330 4.70937 -3 ft 87 kts
2026-05-04 16:16 52.35201 4.71125 204 ft 163 kts
2026-05-04 16:16 52.38601 4.71430 2121 ft 177 kts
2026-05-04 16:17 52.41228 4.72634 2799 ft 224 kts 43°
2026-05-04 16:18 52.41156 4.79692 5162 ft 240 kts 143°
2026-05-04 16:18 52.40192 4.80545 5711 ft 240 kts 165°
2026-05-04 16:19 52.35230 4.82061 8246 ft 245 kts 171°
2026-05-04 16:19 52.31745 4.83064 9548 ft 270 kts 171°
2026-05-04 16:20 52.25653 4.84722 10635 ft 326 kts 178°
2026-05-04 16:20 52.21001 4.84683 11906 ft 338 kts 182°
2026-05-04 16:21 52.13829 4.84544 13880 ft 352 kts 182°
2026-05-04 16:22 52.08882 4.84439 15124 ft 358 kts 182°
2026-05-04 16:22 52.01388 4.83495 16969 ft 364 kts 198°
2026-05-04 16:23 51.94452 4.78328 18786 ft 369 kts 206°
2026-05-04 16:24 51.85036 4.70970 20956 ft 380 kts 206°
2026-05-04 16:25 51.80243 4.67228 21976 ft 385 kts 206°
2026-05-04 16:26 51.70491 4.59641 23989 ft 393 kts 206°
2026-05-04 16:26 51.63049 4.53888 25296 ft 397 kts 205°
2026-05-04 16:27 51.58048 4.50037 26152 ft 400 kts 205°
2026-05-04 16:28 51.50481 4.44232 27434 ft 404 kts 205°
2026-05-04 16:28 51.42807 4.38362 28704 ft 411 kts 205°
2026-05-04 16:29 51.32404 4.30448 30284 ft 417 kts 204°
2026-05-04 16:30 51.24554 4.24494 31604 ft 413 kts 205°
2026-05-04 16:31 51.19388 4.20576 32629 ft 409 kts 205°
2026-05-04 16:31 51.11523 4.15636 32974 ft 401 kts 199°
2026-05-04 16:32 51.03638 4.11330 32971 ft 399 kts 199°
2026-05-04 16:33 50.93172 4.05616 32970 ft 399 kts 199°
2026-05-04 16:34 50.85313 4.01244 32969 ft 399 kts 201°
2026-05-04 16:35 50.69906 3.91202 32956 ft 400 kts 202°
2026-05-04 16:36 50.62158 3.86298 32957 ft 400 kts 201°
2026-05-04 16:37 50.54425 3.81355 32961 ft 400 kts 203°
2026-05-04 16:38 50.44600 3.74565 32962 ft 400 kts 203°
2026-05-04 16:39 50.31847 3.65905 32970 ft 401 kts 203°
2026-05-04 16:40 50.21597 3.58984 32965 ft 401 kts 203°
2026-05-04 16:41 50.08779 3.50378 32958 ft 401 kts 203°
2026-05-04 16:43 49.95956 3.41825 32961 ft 401 kts 203°
2026-05-04 16:43 49.88265 3.36713 32960 ft 401 kts 203°
2026-05-04 16:45 49.72882 3.26568 32958 ft 400 kts 203°
2026-05-04 16:46 49.60076 3.18153 32961 ft 399 kts 203°
2026-05-04 16:47 49.49862 3.11488 32975 ft 399 kts 204°
2026-05-04 16:48 49.40507 3.02415 32958 ft 399 kts 212°
2026-05-04 16:49 49.31237 2.93029 32951 ft 399 kts 212°
2026-05-04 16:50 49.21967 2.83671 32950 ft 399 kts 212°
2026-05-04 16:51 49.15012 2.76692 32958 ft 398 kts 212°
2026-05-04 16:52 49.05744 2.67426 32960 ft 398 kts 212°
2026-05-04 16:53 48.98784 2.60487 32947 ft 400 kts 212°
2026-05-04 16:54 48.89433 2.51203 32938 ft 402 kts 212°
2026-05-04 16:55 48.75319 2.37260 32954 ft 404 kts 212°
2026-05-04 16:56 48.63528 2.25709 32943 ft 404 kts 212°
2026-05-04 16:57 48.56282 2.19285 32948 ft 403 kts 200°
2026-05-04 16:58 48.45352 2.15488 32937 ft 403 kts 193°
2026-05-04 17:00 48.28843 2.10429 32930 ft 404 kts 185°
2026-05-04 17:00 48.20449 2.11662 32922 ft 407 kts 174°
2026-05-04 17:01 48.14843 2.12846 32945 ft 407 kts 175°
2026-05-04 17:02 48.03615 2.13732 32952 ft 403 kts 180°
2026-05-04 17:03 47.95211 2.14230 32960 ft 403 kts 180°
2026-05-04 17:03 47.86814 2.14725 32962 ft 402 kts 180°
2026-05-04 17:04 47.76532 2.15331 32910 ft 402 kts 180°
2026-05-04 17:05 47.65367 2.15974 32918 ft 401 kts 180°
2026-05-04 17:06 47.56996 2.16460 32917 ft 401 kts 180°
2026-05-04 17:07 47.49577 2.16899 32924 ft 400 kts 180°
2026-05-04 17:07 47.43071 2.17273 32924 ft 400 kts 180°
2026-05-04 17:08 47.34729 2.17741 32919 ft 400 kts 180°
2026-05-04 17:09 47.29209 2.18050 32923 ft 399 kts 180°
2026-05-04 17:09 47.23660 2.18367 32931 ft 399 kts 180°
2026-05-04 17:10 47.09804 2.19338 32922 ft 401 kts 173°
2026-05-04 17:11 47.04461 2.21826 32921 ft 406 kts 162°
2026-05-04 17:12 46.96598 2.26442 32923 ft 406 kts 162°
2026-05-04 17:13 46.83472 2.34058 32919 ft 406 kts 162°
2026-05-04 17:14 46.72975 2.40137 32918 ft 406 kts 162°
2026-05-04 17:15 46.65110 2.44675 32898 ft 406 kts 162°
2026-05-04 17:16 46.54582 2.50738 32898 ft 407 kts 162°
2026-05-04 17:17 46.44047 2.56757 32920 ft 406 kts 162°
2026-05-04 17:18 46.33529 2.62737 32912 ft 406 kts 162°
2026-05-04 17:19 46.23065 2.68695 32921 ft 405 kts 162°
2026-05-04 17:20 46.12561 2.74631 32914 ft 405 kts 162°
2026-05-04 17:20 46.04681 2.79070 32892 ft 406 kts 162°
2026-05-04 17:21 45.94086 2.84892 32899 ft 408 kts 163°
2026-05-04 17:22 45.88750 2.87671 32903 ft 409 kts 163°
2026-05-04 17:23 45.78048 2.93273 32920 ft 409 kts 163°
2026-05-04 17:23 45.72604 2.95138 32912 ft 403 kts 179°
2026-05-04 17:24 45.69776 2.95151 32910 ft 401 kts 184°
2026-05-04 17:25 45.58637 2.94848 32925 ft 402 kts 184°
2026-05-04 17:26 45.47449 2.94554 32936 ft 402 kts 184°
2026-05-04 17:27 45.33493 2.94199 32944 ft 400 kts 184°
2026-05-04 17:28 45.22373 2.93896 32966 ft 399 kts 184°
2026-05-04 17:29 45.05807 2.93461 32961 ft 397 kts 184°
2026-05-04 17:31 44.92030 2.93113 32963 ft 396 kts 184°
2026-05-04 17:32 44.78301 2.92542 32969 ft 394 kts 186°
2026-05-04 17:33 44.67362 2.91630 32968 ft 394 kts 186°
2026-05-04 17:34 44.56425 2.90842 32953 ft 393 kts 186°
2026-05-04 17:35 44.42786 2.89852 32968 ft 392 kts 186°
2026-05-04 17:36 44.37341 2.89457 32963 ft 391 kts 186°
2026-05-04 17:36 44.31906 2.89061 32971 ft 391 kts 186°
2026-05-04 17:37 44.26486 2.88673 32969 ft 390 kts 186°
2026-05-04 17:37 44.21066 2.88288 32972 ft 390 kts 186°
2026-05-04 17:38 44.15650 2.87899 32959 ft 389 kts 186°
2026-05-04 17:38 44.10239 2.87512 32964 ft 389 kts 186°
2026-05-04 17:39 44.02140 2.86927 32960 ft 389 kts 186°
2026-05-04 17:39 43.96738 2.86542 32947 ft 389 kts 186°
2026-05-04 17:40 43.91368 2.86159 32950 ft 389 kts 186°
2026-05-04 17:40 43.85956 2.85776 32952 ft 390 kts 186°
2026-05-04 17:41 43.80543 2.85399 32949 ft 389 kts 186°
2026-05-04 17:41 43.75122 2.85126 32940 ft 391 kts 183°
2026-05-04 17:42 43.69676 2.85224 32946 ft 392 kts 182°
2026-05-04 17:42 43.64224 2.85394 32950 ft 392 kts 182°
2026-05-04 17:43 43.58776 2.85510 32935 ft 392 kts 182°
2026-05-04 17:43 43.53316 2.85592 32931 ft 393 kts 182°
2026-05-04 17:44 43.47847 2.85664 32936 ft 394 kts 182°
2026-05-04 17:44 43.42366 2.85737 32937 ft 394 kts 182°
2026-05-04 17:45 43.36881 2.85824 32933 ft 394 kts 183°
2026-05-04 17:45 43.31389 2.85906 32918 ft 395 kts 183°
2026-05-04 17:46 43.25900 2.85986 32921 ft 395 kts 183°
2026-05-04 17:46 43.20400 2.86058 32934 ft 395 kts 183°
2026-05-04 17:47 43.14896 2.86140 32912 ft 395 kts 183°
2026-05-04 17:47 43.09390 2.86222 32913 ft 396 kts 183°
2026-05-04 17:48 43.03879 2.86303 32918 ft 397 kts 183°
2026-05-04 17:48 43.01141 2.86342 32727 ft 400 kts 183°
2026-05-04 17:48 42.98376 2.86383 32332 ft 395 kts 183°
2026-05-04 17:49 42.95644 2.86426 31863 ft 390 kts 183°
2026-05-04 17:49 42.92939 2.86470 31392 ft 387 kts 183°
2026-05-04 17:49 42.90259 2.86511 30919 ft 384 kts 182°
2026-05-04 17:49 42.87600 2.86548 30422 ft 381 kts 182°
2026-05-04 17:50 42.84956 2.86583 29945 ft 379 kts 182°
2026-05-04 17:50 42.82330 2.86619 29431 ft 376 kts 182°
2026-05-04 17:50 42.79728 2.86658 28975 ft 372 kts 182°
2026-05-04 17:50 42.77157 2.86695 28517 ft 369 kts 182°
2026-05-04 17:51 42.74606 2.86673 28060 ft 364 kts 186°
2026-05-04 17:51 42.72089 2.86377 27575 ft 362 kts 187°
2026-05-04 17:51 42.69588 2.86077 27099 ft 361 kts 187°
2026-05-04 17:51 42.67092 2.85783 26642 ft 359 kts 187°
2026-05-04 17:52 42.64605 2.85490 26184 ft 358 kts 187°
2026-05-04 17:52 42.62130 2.85197 25750 ft 356 kts 187°
2026-05-04 17:52 42.59669 2.84909 25316 ft 354 kts 187°
2026-05-04 17:52 42.57224 2.84625 24891 ft 352 kts 187°
2026-05-04 17:53 42.55615 2.84439 24617 ft 350 kts 188°
2026-05-04 17:53 42.53196 2.84156 24206 ft 347 kts 188°
2026-05-04 17:53 42.50793 2.83871 23780 ft 346 kts 188°
2026-05-04 17:53 42.48404 2.83589 23335 ft 344 kts 188°
2026-05-04 17:54 42.46031 2.83310 22871 ft 340 kts 188°
2026-05-04 17:54 42.43709 2.82855 22441 ft 335 kts 193°
2026-05-04 17:54 42.41430 2.82289 21993 ft 332 kts 193°
2026-05-04 17:54 42.39170 2.81734 21550 ft 330 kts 192°
2026-05-04 17:55 42.36920 2.81184 21089 ft 328 kts 193°
2026-05-04 17:55 42.34684 2.80635 20643 ft 326 kts 193°
2026-05-04 17:55 42.32462 2.80087 20190 ft 324 kts 193°
2026-05-04 17:55 42.30248 2.79540 19718 ft 323 kts 193°
2026-05-04 17:56 42.28040 2.78995 19272 ft 322 kts 193°
2026-05-04 17:56 42.25837 2.78455 18808 ft 321 kts 192°
2026-05-04 17:56 42.23636 2.77920 18342 ft 321 kts 192°
2026-05-04 17:56 42.21462 2.77392 17843 ft 321 kts 192°
2026-05-04 17:57 42.19248 2.76853 17365 ft 319 kts 192°
2026-05-04 17:57 42.17094 2.76327 16906 ft 317 kts 192°
2026-05-04 17:57 42.14925 2.75799 16453 ft 316 kts 192°
2026-05-04 17:57 42.12767 2.75272 15991 ft 314 kts 192°
2026-05-04 17:58 42.10621 2.74747 15531 ft 313 kts 193°
2026-05-04 17:58 42.08484 2.74223 15080 ft 311 kts 193°
2026-05-04 17:58 42.06353 2.73699 14629 ft 311 kts 193°
2026-05-04 17:58 42.04226 2.73179 14173 ft 310 kts 192°
2026-05-04 17:59 42.02106 2.72662 13724 ft 309 kts 193°
2026-05-04 17:59 41.99995 2.72149 13245 ft 308 kts 193°
2026-05-04 17:59 41.95804 2.71134 12347 ft 304 kts 192°
2026-05-04 18:00 41.93732 2.70632 11910 ft 301 kts 192°
2026-05-04 18:00 41.91674 2.70136 11490 ft 300 kts 192°
2026-05-04 18:00 41.89616 2.69638 11062 ft 300 kts 192°
2026-05-04 18:00 41.87568 2.69141 10635 ft 299 kts 192°
2026-05-04 18:01 41.85524 2.68642 10224 ft 298 kts 192°
2026-05-04 18:01 41.83511 2.68153 10062 ft 288 kts 192°
2026-05-04 18:01 41.81577 2.67687 9939 ft 278 kts 192°
2026-05-04 18:02 41.77844 2.66788 9700 ft 269 kts 192°
2026-05-04 18:02 41.75998 2.66346 9635 ft 270 kts 193°
2026-05-04 18:02 41.74151 2.65903 9576 ft 270 kts 193°
2026-05-04 18:02 41.72316 2.65401 9515 ft 268 kts 201°
2026-05-04 18:03 41.70691 2.64234 9380 ft 266 kts 217°
2026-05-04 18:03 41.69197 2.62799 9021 ft 264 kts 217°
2026-05-04 18:03 41.67716 2.61347 8660 ft 263 kts 217°
2026-05-04 18:03 41.66271 2.59925 8311 ft 263 kts 217°
2026-05-04 18:04 41.64851 2.58526 7971 ft 261 kts 217°
2026-05-04 18:04 41.63485 2.57183 7648 ft 261 kts 217°
2026-05-04 18:04 41.60627 2.54385 6979 ft 260 kts 217°
2026-05-04 18:05 41.59181 2.52976 6653 ft 252 kts 217°
2026-05-04 18:05 41.57791 2.51625 6386 ft 242 kts 217°
2026-05-04 18:05 41.56451 2.50322 6105 ft 234 kts 217°
2026-05-04 18:05 41.55151 2.49056 5825 ft 230 kts 217°
2026-05-04 18:06 41.52602 2.46569 5265 ft 226 kts 217°
2026-05-04 18:06 41.51337 2.45335 4988 ft 225 kts 217°
2026-05-04 18:06 41.50083 2.44112 4775 ft 221 kts 216°
2026-05-04 18:07 41.48847 2.42910 4571 ft 219 kts 216°
2026-05-04 18:07 41.47619 2.41718 4371 ft 218 kts 216°
2026-05-04 18:07 41.46394 2.40531 4172 ft 217 kts 216°
2026-05-04 18:07 41.45172 2.39345 3968 ft 217 kts 216°
2026-05-04 18:08 41.43950 2.38163 3761 ft 217 kts 216°
2026-05-04 18:08 41.42731 2.36984 3560 ft 216 kts 216°
2026-05-04 18:08 41.41523 2.35815 3365 ft 214 kts 216°
2026-05-04 18:08 41.40330 2.34660 3160 ft 209 kts 216°
2026-05-04 18:09 41.38146 2.32296 2992 ft 199 kts 232°
2026-05-04 18:09 41.36903 2.28967 2935 ft 200 kts 244°
2026-05-04 18:10 41.36339 2.27301 2744 ft 196 kts 245°
2026-05-04 18:10 41.35781 2.25659 2488 ft 194 kts 245°
2026-05-04 18:10 41.35227 2.24030 2233 ft 192 kts 245°
2026-05-04 18:10 41.34678 2.22415 1982 ft 191 kts 245°
2026-05-04 18:11 41.34129 2.20801 1727 ft 191 kts 245°
2026-05-04 18:11 41.33595 2.19233 1480 ft 178 kts 245°
2026-05-04 18:11 41.33103 2.17789 1238 ft 164 kts 245°
2026-05-04 18:11 41.32651 2.16464 1022 ft 150 kts 244°
2026-05-04 18:12 41.32250 2.15288 830 ft 135 kts 245°
2026-05-04 18:12 41.31866 2.14165 662 ft 132 kts 245°
2026-05-04 18:12 41.31485 2.13049 481 ft 132 kts 245°
2026-05-04 18:12 41.31106 2.11940 309 ft 132 kts 245°
2026-05-04 18:13 41.30730 2.10835 132 ft 131 kts 245°
2026-05-04 18:13 41.30360 2.09751 20 ft 120 kts 245°
2026-05-04 18:13 41.29998 2.08718 23 ft 28 kts 233°
2026-05-04 18:14 41.29889 2.08584 22 ft 17 kts 216°
2026-05-04 18:14 41.29812 2.08510 18 ft 13 kts 216°
2026-05-04 18:14 41.29763 2.08463 17 ft 4 kts 216°
2026-05-04 18:15 41.29717 2.08417 17 ft 7 kts 224°
2026-05-04 18:15 41.29693 2.08353 17 ft 4 kts 245°
2026-05-04 18:15 41.29675 2.08304 17 ft 8 kts 245°
2026-05-04 18:16 41.29671 2.08292 17 ft 0 kts 245°
2026-05-04 18:17 41.29666 2.08277 17 ft 5 kts 245°
2026-05-04 18:17 41.29568 2.08224 17 ft 12 kts 224°
2026-05-04 18:18 41.29536 2.08128 15 ft 9 kts 245°
2026-05-04 18:18 41.29509 2.08049 15 ft 11 kts 246°
2026-05-04 18:18 41.29467 2.07972 16 ft 10 kts 192°
2026-05-04 18:18 41.29407 2.08007 17 ft 10 kts 157°
2026-05-04 18:19 41.29298 2.08065 21 ft 8 kts 169°
2026-05-04 18:19 41.29255 2.08087 21 ft 5 kts 152°
2026-05-04 18:19 41.29228 2.08103 19 ft 1 kts 158°
2026-05-04 18:20 41.29212 2.08112 20 ft 4 kts 155°
2026-05-04 18:20 41.29208 2.08115 20 ft 0 kts 155°